Location: Prairie State College
(41.5244°N, 87.6382°W)
Time: 00:59:03
(UTC-05:00)

ISS - All Passes

Search period start: 29 July 2016 00:00
Search period end: 08 August 2016 00:00
Orbit: 401 x 404 km, 51.6° (Epoch: 28 July)

Date Brightness Start Highest point End Pass type
(mag) Time Alt. Az. Time Alt. Az. Time Alt. Az.
29 Jul - 01:10:43 10° NNW 01:12:55 17° NNE 01:15:07 10° NE visible
29 Jul - 02:46:42 10° NW 02:49:54 53° NNE 02:53:06 10° ESE night (unlit)
29 Jul - 04:23:48 10° W 04:26:04 18° SW 04:28:20 10° S visible
29 Jul - 19:27:32 10° SSE 19:29:20 14° SE 19:31:08 10° E daylight
29 Jul - 21:02:09 10° WSW 21:05:23 66° NNW 21:08:38 10° NE visible
29 Jul - 22:39:58 10° WNW 22:42:18 18° NNW 22:44:38 10° NNE visible
30 Jul - 00:17:47 10° NNW 00:19:42 14° N 00:21:36 10° NE visible
30 Jul - 01:53:53 10° NW 01:56:52 32° NNE 01:59:51 10° E visible
30 Jul - 03:30:19 10° WNW 03:33:18 33° SW 03:36:16 10° SSE night (unlit)
30 Jul - 20:09:15 10° SW 20:12:28 64° SE 20:15:42 10° ENE daylight
30 Jul - 21:46:27 10° WNW 21:49:08 23° NNW 21:51:49 10° NE visible
30 Jul - 23:24:38 10° NW 23:26:27 14° N 23:28:15 10° NNE visible
31 Jul - 01:01:06 10° NW 01:03:45 22° NNE 01:06:25 10° ENE visible
31 Jul - 02:37:12 10° WNW 02:40:27 68° SW 02:43:40 10° SE night (unlit)
31 Jul - 19:16:41 10° SSW 19:19:37 32° SE 19:22:34 10° ENE daylight
31 Jul - 20:53:01 10° W 20:56:01 33° NNW 20:59:02 10° NE visible
31 Jul - 22:31:16 10° NW 22:33:11 15° N 22:35:07 10° NNE visible
01 Aug - 00:08:17 10° NNW 00:10:36 18° NNE 00:12:53 10° ENE visible
01 Aug - 01:44:16 10° NW 01:47:31 63° NNE 01:50:45 10° ESE night (unlit)
01 Aug - 03:21:41 10° W 03:23:36 15° SW 03:25:30 10° SSW night (unlit)
01 Aug - 18:24:40 10° S 18:26:51 17° SE 18:29:02 10° E daylight
01 Aug - 19:59:47 10° WSW 20:03:00 56° NNW 20:06:13 10° NE daylight
01 Aug - 21:37:44 10° NW 21:39:58 17° NNW 21:42:11 10° NNE visible
01 Aug - 23:15:23 10° NNW 23:17:22 15° N 23:19:21 10° NE visible
02 Aug - 00:51:26 10° NW 00:54:30 36° NNE 00:57:32 10° E visible
02 Aug - 02:28:00 10° WNW 02:30:51 28° SW 02:33:41 10° SSE night (unlit)
02 Aug - 19:06:48 10° SW 19:10:02 78° SE 19:13:18 10° ENE daylight
02 Aug - 20:44:11 10° WNW 20:46:46 21° NNW 20:49:22 10° NE visible
02 Aug - 22:22:17 10° NNW 22:24:07 14° N 22:25:55 10° NE visible
02 Aug - 23:58:38 10° NW 00:01:23 25° NNE 00:04:09 10° E visible
03 Aug - 01:34:48 10° WNW 01:38:01 56° SW 01:41:12 10° SE night (unlit)
03 Aug - 18:14:06 10° SSW 18:17:09 38° SE 18:20:13 10° ENE daylight
03 Aug - 19:50:43 10° W 19:53:38 30° NNW 19:56:34 10° NE daylight
03 Aug - 21:28:59 10° NW 21:30:51 14° N 21:32:43 10° NNE visible
03 Aug - 23:05:50 10° NNW 23:08:14 19° NNE 23:10:38 10° ENE visible
04 Aug - 00:41:50 10° NW 00:45:05 75° NNE 00:48:20 10° ESE visible
04 Aug - 02:19:41 10° WSW 02:21:06 12° SW 02:22:31 10° SSW night (unlit)
04 Aug - 17:21:54 10° S 17:24:21 20° SE 17:26:50 10° E daylight
04 Aug - 18:57:25 10° WSW 19:00:35 47° NNW 19:03:45 10° NE daylight
04 Aug - 20:35:28 10° NW 20:37:36 16° N 20:39:44 10° NNE visible
04 Aug - 22:12:57 10° NNW 22:15:01 15° N 22:17:04 10° NE visible
04 Aug - 23:48:58 10° NW 23:52:05 41° NNE 23:55:12 10° ESE visible
05 Aug - 01:25:42 10° W 01:28:22 23° SW 01:31:01 10° S night (unlit)
05 Aug - 16:31:04 10° SE 16:31:38 10° SE 16:32:13 10° ESE daylight
05 Aug - 18:04:20 10° SW 18:07:35 87° NNW 18:10:52 10° NE daylight
05 Aug - 19:41:54 10° WNW 19:44:23 20° NNW 19:46:53 10° NNE daylight
05 Aug - 21:19:55 10° NNW 21:21:45 14° N 21:23:35 10° NE visible
05 Aug - 22:56:08 10° NW 22:59:00 27° NNE 23:01:50 10° E visible
06 Aug - 00:32:25 10° WNW 00:35:32 45° SW 00:38:40 10° SSE visible
06 Aug - 17:11:33 10° SW 17:14:40 46° SE 17:17:50 10° ENE daylight
06 Aug - 18:48:23 10° W 18:51:14 27° NNW 18:54:05 10° NE daylight
06 Aug - 20:26:39 10° NW 20:28:29 14° N 20:30:19 10° NNE visible
06 Aug - 22:03:20 10° NNW 22:05:51 20° NNE 22:08:20 10° ENE visible
06 Aug - 23:39:22 10° NW 23:42:38 89° NE 23:45:54 10° SE visible
07 Aug - 01:18:15 10° WSW 01:18:34 10° SW 01:18:53 10° SW night (unlit)
07 Aug - 16:19:10 10° S 16:21:51 24° SE 16:24:32 10° E daylight
07 Aug - 17:55:01 10° WSW 17:58:08 41° NNW 18:01:16 10° NE daylight
07 Aug - 19:33:10 10° NW 19:35:13 15° N 19:37:16 10° NNE daylight
07 Aug - 21:10:29 10° NNW 21:12:37 16° N 21:14:46 10° NE visible
07 Aug - 22:46:28 10° NW 22:49:39 48° NNE 22:52:48 10° ESE visible
